Location: Ermatingen
(47.6706°N, 9.0857°E)
Time: 10:02:10
(UTC+00:00)

Daily predictions for brighter satellites

Satellite Brightness Start Highest point End
(mag) Time Altitude Azimuth Time Altitude Azimuth Time Altitude Azimuth
Cosmos 2263 Rocket 2.4 17:50:15 10° S 17:55:35 50° ESE 18:00:59 10° NE
Meteor 2-9 Rocket 4.5 17:53:06 10° S 17:58:45 53° E 18:04:23 10° NNE
USA 102 4.5 17:54:41 10° SE 18:00:29 50° ENE 18:03:55 10° N
Tsikada Rocket 4.2 17:56:30 10° NNW 18:02:40 77° W 18:08:49 10° S
Cosmos 1844 Rocket 4.2 18:01:07 10° ESE 18:03:34 13° E 18:06:01 10° ENE
Cosmos 1378 Rocket 4.4 17:59:24 10° NNW 18:03:38 56° W 18:07:50 10° S
CZ-2C R/B 3.1 17:58:46 10° SSE 18:03:57 72° ENE 18:09:28 10° N
SJ 16-02 1.7 17:59:54 10° SSW 18:04:16 70° WNW 18:08:39 10° NNE
Cosmos 990 Rocket 3.9 17:59:27 10° SSW 18:04:33 71° ESE 18:09:42 10° NNE
Cosmos 2227 4.2 17:59:28 10° SSW 18:05:08 65° ESE 18:10:49 10° NNE
ISS -1.9 18:03:52 10° S 18:06:01 16° SE 18:08:11 10° E
Abrixas rocket 1.8 18:05:34 10° WSW 18:08:23 70° SSE 18:11:14 10° E
Okean 2 Rocket 4.2 18:05:59 10° SE 18:09:33 24° E 18:13:09 10° NE
Cosmos 1943 3.2 18:04:24 10° NNW 18:10:06 82° ENE 18:15:46 10° SSE
SJ-11-01 4.3 18:05:37 10° SSE 18:10:18 66° ENE 18:14:59 10° N
NOSS 8 (F) 4.2 18:07:53 10° SW 18:11:08 86° NW 18:14:09 10° NE
Okean-O 3.6 18:08:14 10° S 18:12:34 52° W 18:16:55 10° NNW
Lacrosse 5 rocket 2.6 18:09:04 10° W 18:13:07 43° NNW 18:17:24 10° NE
Ariane Rocket 3.7 18:11:16 10° SE 18:15:49 35° ENE 18:20:25 10° N
Cosmos 1437 2.4 18:15:08 10° N 18:18:09 83° E 18:21:08 10° SSE
NOSS 3-2 (A) 4.4 18:12:09 10° NW 18:19:10 49° NE 18:26:31 12° ESE
NOSS 2-2 (C) 3.9 18:17:14 10° S 18:20:19 29° ESE 18:23:38 10° ENE
Meteor 1-21 4.2 18:15:23 10° N 18:21:02 84° ENE 18:26:38 10° SSE
USA 116 3.4 18:19:19 10° NNE 18:22:42 90° S 18:26:27 10° SSW
Cosmos 1300 Rocket 4.3 18:18:57 10° SSE 18:22:47 30° E 18:26:39 10° NNE
CSL-04 Debris 4.3 18:18:19 10° SSE 18:23:42 81° WSW 18:29:08 10° NNW
GP-B 4.3 18:20:13 10° N 18:24:29 47° W 18:28:44 10° SSW
YAOGAN 1 3.6 18:23:59 10° S 18:28:10 49° W 18:32:23 10° NNW
Cosmos 1603 4.2 18:23:52 10° NNW 18:29:29 64° WSW 18:35:02 10° SSE
HJ-1C 3.5 18:27:18 10° S 18:30:34 74° W 18:33:52 10° NNW
Cosmos 1898 Rocket 3.7 18:26:31 10° SSW 18:31:41 77° WNW 18:36:54 10° NNE
CSL-04 Rocket 4.0 18:28:02 10° S 18:33:26 72° WSW 18:38:57 10° NNW
Cosmos 1867 3.6 18:28:08 10° NW 18:33:38 75° NE 18:38:36 13° SE
Okean 2 4.3 18:30:21 10° NNW 18:34:25 52° W 18:38:28 10° S
Cosmos 1536 Rocket 4.2 18:34:08 10° N 18:38:14 35° ENE 18:41:16 16° SE
USA 234 3.9 18:36:21 10° ENE 18:42:08 33° SE 18:47:55 10° S
Cosmos 1626 4.4 18:42:41 10° NE 18:43:18 11° ENE 18:43:18 11° ENE
CREW DRAGON DEMO-1 DEB 4.0 18:43:24 10° WNW 18:46:16 36° N 18:47:59 19° ENE
Cosmos 1782 Rocket 4.3 18:44:39 10° SSW 18:48:59 57° WNW 18:53:24 10° N
Cosmos 1975 4.3 18:46:14 10° SSW 18:50:07 41° WNW 18:54:01 10° N
CZ-4 R/B 3.9 18:47:02 10° SSW 18:50:30 24° W 18:53:58 10° NW
Cosmos 2151 Rocket 3.9 18:46:25 10° SSE 18:50:36 43° E 18:54:51 10° NNE
Cosmos 372 Rocket 4.0 18:45:41 10° S 18:50:49 59° ESE 18:55:58 10° NNE
USA 186 1.6 18:48:48 17° SSE 18:51:06 74° ENE 18:54:20 10° N
Cosmos 1025 Rocket 3.0 18:47:58 10° N 18:52:19 63° ENE 18:56:09 13° SSE
Cosmos 2150 Rocket 4.4 18:48:19 10° S 18:53:18 40° ESE 18:58:20 10° NE
NOSS 3-2 (C) 4.4 18:46:14 10° NW 18:53:18 50° NE 18:58:44 21° ESE
Cosmos 1072 Rocket 4.4 18:50:09 10° S 18:56:22 80° E 19:02:44 10° N
Nadezhda 4 Rocket 4.0 18:53:00 10° N 18:59:05 62° ENE 19:04:42 12° SSE
Cosmos 1937 Rocket 4.1 18:56:13 10° SW 19:01:25 60° WNW 19:06:36 10° NNE
OBJECT-B 1.4 19:01:23 36° E 19:01:36 37° ENE 19:04:38 10° N
Cosmos 2082 Rocket 4.3 18:59:52 10° N 19:02:10 12° NNE 19:04:28 10° NE
Cosmos 2034 Rocket 4.0 18:56:23 10° S 19:02:37 61° E 19:08:51 10° NNE
MOS 1 Rocket 3.6 18:59:16 10° N 19:03:45 63° WNW 19:08:01 10° SSW
Cosmos 1125 Rocket 4.1 18:59:35 10° SSE 19:04:18 33° ESE 19:09:03 10° NE
Exosat Rocket 4.2 19:00:35 10° SSE 19:05:37 33° ESE 19:10:06 10° NE
FREGAT/IRIS 2.0 19:05:32 72° SE 19:05:43 80° ENE 19:08:20 10° N
Cosmos 1674 3.0 19:05:23 10° N 19:09:06 44° ENE 19:09:42 40° ESE
Meteor 1-24 Rocket 4.5 19:08:03 10° N 19:12:57 32° ENE 19:14:11 29° E
In-Cosmos 22 4.1 19:10:52 10° NNW 19:16:11 78° W 19:21:24 10° S
Cosmos 468 4.5 19:12:09 10° NNW 19:17:30 79° ENE 19:20:21 29° SSE
NOSS 2-2 (E) 3.6 19:14:03 10° SW 19:17:31 61° NW 19:21:34 10° NE
Resurs 01 Rocket 2.1 19:19:17 38° E 19:19:55 41° ENE 19:24:07 10° N
H-2A R/B 3.6 19:16:07 10° SSW 19:20:32 33° W 19:25:06 10° NNW
Cosmos 1707 4.0 19:17:56 10° NNW 19:21:34 41° W 19:25:10 10° SSW
ARGOS 4.2 19:16:32 10° S 19:21:37 44° W 19:26:46 10° NNW
ATLAS 2AS CENTAUR R/B 4.1 19:15:57 10° SSE 19:24:48 23° E 19:28:38 10° ENE
SJ-6B 3.0 19:21:47 24° S 19:23:53 63° WSW 19:27:37 10° NNW
CZ-2C R/B 2.7 19:18:42 10° NNE 19:24:16 89° ESE 19:29:52 10° SSW
NOSS 2-2 (D) 3.5 19:22:30 10° SW 19:25:58 64° NW 19:29:57 10° NE
KORONAS-FOTON 3.7 19:22:50 10° N 19:26:46 68° E 19:27:14 61° SE
Cosmos 1174 4.5 19:24:39 10° SSW 19:29:35 71° ESE 19:35:51 10° NE
Cosmos 1048 Rocket 4.0 19:26:22 10° NNW 19:31:42 85° WSW 19:34:10 33° SSE
CENTAUR R/B 3.2 19:26:22 10° NW 19:34:19 72° NE 19:38:32 34° ESE
Cosmos 1844 3.7 19:29:03 10° S 19:34:36 55° ESE 19:40:07 10° NE
Cosmos 1634 Rocket 4.1 19:34:23 38° SE 19:36:16 49° E 19:42:11 10° NNE
ARIANE 5 R/B 3.4 19:37:43 35° NE 19:37:43 35° NE 19:41:13 10° N
SWAS 4.3 19:34:30 10° NNW 19:38:50 69° ENE 19:39:04 67° E
Cosmos 2263 Rocket 4.0 19:34:50 10° WSW 19:39:46 31° NW 19:44:44 10° NNE
ATLAS 3B R/B 3.6 19:33:56 10° NNW 19:40:11 36° NNE 19:42:49 28° ENE
Cosmos 2285 Rocket 3.9 19:34:43 10° S 19:40:52 60° ESE 19:47:07 10° NNE
Cosmos 1269 Rocket 4.3 19:35:47 10° NNW 19:40:55 47° ENE 19:41:30 45° E
MetOp-B 4.3 19:41:10 46° E 19:41:52 50° ENE 19:47:02 10° N
USA 238 DEB 3.8 19:34:57 10° NW 19:42:11 82° SW 19:45:38 36° SSE
USA 238 3.8 19:35:02 10° NW 19:42:17 83° SW 19:45:43 36° SSE
ISS -2.6 19:39:03 10° WSW 19:41:15 38° WSW 19:41:15 38° WSW
Abrixas rocket 3.7 19:40:51 10° W 19:42:31 31° WNW 19:42:31 31° WNW
Cosmos 1844 Rocket 2.5 19:40:58 10° SSW 19:46:31 82° ESE 19:52:08 10° NNE
Spot 2 Rocket 4.1 19:48:07 39° ENE 19:48:07 39° ENE 19:52:37 10° N
Cosmos 1627 Rocket 4.4 19:44:58 10° N 19:51:23 76° E 19:53:34 44° SSE
Okean 1 Rocket 2.9 19:51:22 79° SSE 19:51:37 85° E 19:56:08 10° N
Lacrosse 5 rocket 3.4 19:49:34 10° WNW 19:53:13 25° N 19:55:13 18° NE
Ariane Rocket 4.4 19:50:10 10° SSW 19:54:46 35° W 19:59:25 10° NNW
Cosmos 1092 Rocket 4.0 19:51:20 10° N 19:57:31 81° W 20:00:15 36° S
Meteor 1-15 Rocket 4.4 19:53:12 10° SSW 19:58:48 72° WNW 20:04:31 10° N
Resurs 1-3 4.1 19:57:58 44° SSW 19:58:56 55° W 20:03:17 10° NNW
Cosmos 2195 Rocket 4.4 19:54:32 10° N 20:00:51 85° W 20:03:07 42° S
Cosmos 494 Rocket 4.2 19:59:26 10° NNW 20:04:41 69° WSW 20:05:36 56° SSW
Cosmos 2026 Rocket 3.9 19:58:40 10° N 20:05:05 89° E 20:06:56 50° S
SPOT 3 Rocket 3.9 20:03:38 41° SSW 20:05:15 60° WSW 20:10:22 10° NNW
CZ-2C R/B 3.6 20:01:03 10° NNE 20:05:31 80° WNW 20:05:31 80° WNW
Cosmos 1833 Rocket 3.4 20:02:31 10° NNW 20:07:46 40° NE 20:07:46 40° NE
NOSS 3-2 (A) 4.4 20:03:01 10° NW 20:10:24 58° WSW 20:13:57 35° S
Cosmos 1428 Rocket 4.5 20:11:07 10° N 20:17:24 80° W 20:18:51 56° S
Terra 3.6 20:19:12 22° NNE 20:19:12 22° NNE 20:21:31 10° N
Cosmos 1626 3.8 20:15:47 10° NNW 20:17:51 31° NNW 20:17:51 31° NNW
Cosmos 2279 Rocket 3.9 20:20:51 65° ENE 20:20:51 65° ENE 20:26:44 10° NNE
Cosmos 2142 Rocket 4.3 20:21:19 75° SE 20:21:42 78° E 20:27:57 10° NNE
USA 234 3.2 20:19:22 12° NE 20:25:37 86° NNW 20:32:11 10° WSW
Meteor 2-5 Rocket 4.3 20:23:54 10° NNW 20:29:21 52° W 20:30:35 44° SW
OBJECT-B 3.9 20:34:35 13° W 20:34:35 13° W 20:35:51 10° WNW
SPOT 5 3.9 20:40:09 41° NNE 20:40:09 41° NNE 20:43:48 10° N
NOSS 3-2 (C) 4.4 20:37:10 10° NW 20:44:32 56° WSW 20:46:11 49° SSW
Cosmos 2082 Rocket 3.1 20:42:22 10° NNW 20:46:33 40° NNE 20:46:33 40° NNE
COSMOS 2406 3.6 20:49:43 10° NNW 20:54:20 59° NW 20:54:20 59° NW
ERS-1 Rocket 4.0 20:57:24 41° NNW 20:57:24 41° NNW 21:00:38 10° NNW
Resurs 01 Rocket 3.7 20:56:51 23° W 20:56:51 23° W 21:00:09 10° NW
Cosmos 2098 Rocket 4.2 20:57:11 10° N 21:03:50 75° NW 21:03:50 75° NW
Lacrosse 4 Rocket 4.0 21:01:04 10° NNW 21:02:11 17° NNW 21:02:11 17° NNW
Cosmos 2266 Rocket 4.4 21:00:56 10° N 21:05:35 55° N 21:05:35 55° N
ATLAS 2AS CENTAUR R/B 2.9 21:04:34 10° SW 21:12:34 85° NW 21:20:30 10° NE
Cosmos 1655 Rocket 4.4 21:07:08 10° NNW 21:12:30 61° NW 21:12:30 61° NW
Cosmos 2278 Rocket 4.2 21:22:33 20° NNE 21:22:33 20° NNE 21:24:12 10° NNE
CENTAUR R/B 4.0 21:17:28 10° NW 21:24:52 38° WSW 21:25:44 37° SW
ATLAS 3B R/B 3.1 21:24:34 10° NW 21:30:03 58° WNW 21:30:03 58° WNW
Lacrosse 5 rocket 4.1 21:29:22 10° NW 21:30:50 18° NW 21:30:50 18° NW
Cosmos 1833 Rocket 4.4 21:46:34 10° NW 21:49:28 27° WNW 21:49:28 27° WNW
Terra 4.3 21:58:06 19° NW 21:58:06 19° NW 21:59:37 10° NNW
USA 234 4.1 22:02:08 10° NE 22:08:17 45° NNW 22:14:27 10° W
Cosmos 2082 Rocket 4.5 22:26:46 10° NW 22:28:23 18° NW 22:28:23 18° NW
CZ-4C R/B 4.4 23:02:00 21° NNE 23:02:00 21° NNE 23:04:09 10° NE
Cosmos 2278 Rocket 4.4 23:04:22 20° NNW 23:04:22 20° NNW 23:07:35 10° N
ATLAS 2AS CENTAUR R/B 4.3 22:59:09 16° W 23:04:38 34° NNW 23:11:35 10° NE
USA 234 4.3 23:44:32 10° ENE 23:54:28 20° NW 23:56:31 10° WNW
